Weather reports worldwide

Advertisment
Neuburg/Donau, Germany (10853): temperature & dewpoint: 22.01.2020 07:00:00 - 28.01.2020 07:00:00 (CET)Neuburg/Donau, Germany (10853): wind speed: 22.01.2020 07:00:00 - 28.01.2020 07:00:00 (CET)Neuburg/Donau, Germany (10853): wind direction: 22.01.2020 07:00:00 - 28.01.2020 07:00:00 (CET)Neuburg/Donau, Germany (10853): reduced air pressure: 22.01.2020 07:00:00 - 28.01.2020 07:00:00 (CET)Neuburg/Donau, Germany (10853): visibility: 22.01.2020 07:00:00 - 28.01.2020 07:00:00 (CET)
Date & Time tt [°C] td [°C] ff [km/h] ff [kn] dd ppp [hPa] vv [km]
28.01.2020 07:00:00 5,9 3,2 14 8 SW 1003,0 40
28.01.2020 06:00:00 6,0 3,0 22 12 SW 1003,3 40
28.01.2020 05:00:00 6,7 3,1 25 14 SW 1003,8 45
28.01.2020 04:00:00 5,8 3,4 18 10 SW 1004,2 15
28.01.2020 03:00:00 5,0 2,9 7 4 WSW 1005,0 35
28.01.2020 02:00:00 4,8 3,3 11 6 S 1005,7 35
28.01.2020 01:00:00 5,4 3,3 11 6 SSW 1007,3 25
28.01.2020 00:00:00 5,4 2,8 7 4 SSW 1008,0 30
27.01.2020 23:00:00 5,1 2,6 11 6 WSW 1008,8 35
27.01.2020 22:00:00 4,3 2,9 7 4 ENE 1008,9 35
27.01.2020 21:00:00 4,3 3,0 4 2 SE 1010,2 35
27.01.2020 20:00:00 4,1 3,1 7 4 NE 1010,7 30
27.01.2020 19:00:00 4,7 2,9 4 2 NE 1011,4 25
27.01.2020 18:00:00 4,9 2,3 0 0 N 1011,7 25
27.01.2020 17:00:00 6,2 2,6 4 2 S 1012,1 20
27.01.2020 16:00:00 8,5 3,6 7 4 S 1012,4 20
27.01.2020 15:00:00 10,2 3,7 4 2 SSE 1012,8 18
27.01.2020 14:00:00 9,1 3,6 4 2 N 1013,8 16
27.01.2020 13:00:00 7,0 3,0 4 2 N 1015,2 12
27.01.2020 12:00:00 5,2 2,8 4 2 N 1016,6 7
27.01.2020 11:00:00 2,1 1,7 2 1 NNE 1018,2 3,7
27.01.2020 10:00:00 -0,4 -0,6 0 0 N 1019,2 3,2
27.01.2020 09:00:00 -1,2 -1,4 4 2 SSW 1019,7 3,0
27.01.2020 08:00:00 -1,4 -1,6 4 2 SE 1019,8 2,0
27.01.2020 07:00:00 -1,5 -1,7 4 2 NW 1020,1 2,2
27.01.2020 06:00:00 -1,2 -1,4 4 2 NNE 1020,1 2,0
27.01.2020 05:00:00 -1,4 -1,6 4 2 NE 1020,2 3,0
27.01.2020 04:00:00 -2,0 -2,2 4 2 NNE 1020,4 0,7
27.01.2020 03:00:00 -2,0 -2,2 4 2 N 1020,8 0,2
27.01.2020 02:00:00 -2,1 -2,3 4 2 NNE 1020,8 0,1
27.01.2020 01:00:00 -2,5 -2,7 4 2 S 1021,2 0,2
27.01.2020 00:00:00 -2,7 -2,8 4 2 S 1021,4 0,5
26.01.2020 23:00:00 -1,8 -2,0 0 0 N 1021,2 2,0
26.01.2020 22:00:00 -1,0 -1,2 4 2 W 1021,3 3,0
26.01.2020 21:00:00 -0,1 -0,4 4 2 NNW 1020,8 4,0
26.01.2020 20:00:00 0,5 -0,1 4 2 N 1020,6 3,0
26.01.2020 19:00:00 0,7 0,1 4 2 N 1020,3 5
26.01.2020 18:00:00 1,8 0,8 4 2 NE 1020,2 5
26.01.2020 17:00:00 3,6 1,6 4 2 NE 1019,8 9
26.01.2020 16:00:00 4,7 2,1 4 2 ESE 1019,8 9
26.01.2020 15:00:00 4,5 1,9 7 4 SE 1020,0 7
26.01.2020 14:00:00 4,1 1,6 7 4 N 1020,4 6
26.01.2020 13:00:00 3,0 0,8 4 2 N 1021,2 4,5
26.01.2020 12:00:00 1,9 0,4 4 2 N 1021,8 3,8
26.01.2020 11:00:00 0,8 0,0 4 2 N 1022,3 2,0
26.01.2020 10:00:00 0,2 -0,3 4 2 E 1022,4 0,8
26.01.2020 09:00:00 -1,0 -1,2 4 2 NNE 1022,5 0,8
26.01.2020 08:00:00 -0,8 -1,0 4 2 WSW 1022,3 1,5
26.01.2020 07:00:00 -0,9 -1,2 4 2 NE 1022,1 3,0
26.01.2020 06:00:00 -0,6 -0,9 4 2 WNW 1022,0 3,0
26.01.2020 05:00:00 -0,5 -0,8 4 2 ESE 1022,0 3,5
26.01.2020 04:00:00 -0,2 -0,6 7 4 E 1021,9 4,0
26.01.2020 03:00:00 -0,4 -0,9 4 2 ENE 1022,6 4,0
26.01.2020 02:00:00 - - - - - - -
26.01.2020 01:00:00 -0,3 -0,7 4 2 N 1023,1 4,0
26.01.2020 00:00:00 -0,5 -0,9 4 2 E 1023,1 4,5
25.01.2020 23:00:00 -0,3 -0,7 4 2 N 1023,3 5
25.01.2020 22:00:00 -0,1 -0,8 4 2 N 1023,4 5
25.01.2020 21:00:00 0,8 0,1 4 2 NNE 1023,5 6
25.01.2020 20:00:00 0,9 0,0 4 2 NNE 1023,4 7
25.01.2020 19:00:00 1,7 0,6 0 0 N 1023,1 7
25.01.2020 18:00:00 1,9 0,7 4 2 ENE 1022,8 6
25.01.2020 17:00:00 2,9 1,0 4 2 E 1022,6 7
25.01.2020 16:00:00 3,8 1,2 4 2 SE 1022,6 7
25.01.2020 15:00:00 3,6 1,3 7 4 E 1022,7 7
25.01.2020 14:00:00 3,9 1,0 4 2 N 1023,1 7
25.01.2020 13:00:00 2,3 0,5 4 2 N 1024,0 5
25.01.2020 12:00:00 -0,3 -0,8 4 2 N 1025,2 3,0
25.01.2020 11:00:00 -1,6 -1,9 4 2 N 1025,6 3,0
25.01.2020 10:00:00 -2,7 -3,1 4 2 S 1025,5 2,5
25.01.2020 09:00:00 -3,6 -4,0 0 0 N 1025,6 0,5
25.01.2020 08:00:00 -4,1 -4,5 2 1 ENE 1025,2 0,2
25.01.2020 07:00:00 -4,3 -4,7 4 2 S 1024,8 0,1
25.01.2020 06:00:00 -4,1 -4,4 4 2 N 1024,8 0,1
25.01.2020 05:00:00 -4,3 -4,5 4 2 S 1024,8 0,3
25.01.2020 04:00:00 -5,9 -6,5 7 4 S 1025,0 3,2
25.01.2020 03:00:00 -4,2 -4,7 4 2 NNE 1025,0 3,5
25.01.2020 02:00:00 -4,3 -4,9 4 2 N 1025,1 3,5
25.01.2020 01:00:00 -3,7 -4,1 0 0 N 1025,4 2,8
25.01.2020 00:00:00 -3,8 -4,3 4 2 N 1025,8 1,8
24.01.2020 23:00:00 -3,3 -3,7 0 0 N 1025,7 2,2
24.01.2020 22:00:00 -2,6 -3,1 0 0 N 1026,0 3,5
24.01.2020 21:00:00 -2,1 -2,6 4 2 N 1026,2 4,0
24.01.2020 20:00:00 -2,1 -2,7 4 2 NNE 1025,9 5
24.01.2020 19:00:00 -1,7 -2,6 4 2 N 1025,5 5
24.01.2020 18:00:00 -0,9 -2,1 4 2 NNE 1025,0 6
24.01.2020 17:00:00 0,6 -2,0 4 2 NE 1025,1 8
24.01.2020 16:00:00 2,3 -1,4 7 4 E 1024,8 9
24.01.2020 15:00:00 2,8 -2,0 4 2 N 1025,1 8
24.01.2020 14:00:00 1,4 -2,1 4 2 S 1025,6 8
24.01.2020 13:00:00 0,0 -2,1 4 2 SW 1026,6 7
24.01.2020 12:00:00 -0,8 -2,4 7 4 N 1027,4 6
24.01.2020 11:00:00 -1,2 -2,7 11 6 WSW 1027,9 5
24.01.2020 10:00:00 -1,4 -3,0 11 6 SW 1027,8 5
24.01.2020 09:00:00 -1,5 -3,2 11 6 WSW 1027,8 6
24.01.2020 08:00:00 -1,3 -3,3 4 2 N 1027,6 4,5
24.01.2020 07:00:00 -1,4 -3,5 11 6 WSW 1027,4 5
24.01.2020 06:00:00 -1,4 -3,4 14 8 WSW 1027,0 4,5
24.01.2020 05:00:00 -1,1 -2,8 8 4 SW 1027,2 3,0
24.01.2020 04:00:00 -1,3 -1,8 4 2 SW 1027,5 3,0
24.01.2020 03:00:00 -2,2 -2,6 0 0 N 1028,1 3,0
24.01.2020 02:00:00 -2,7 -3,2 4 2 ESE 1028,3 3,2
24.01.2020 01:00:00 -3,8 -4,2 4 2 NW 1029,1 3,0
24.01.2020 00:00:00 -4,2 -4,6 4 2 W 1029,4 2,0
23.01.2020 23:00:00 -3,4 -3,8 4 2 NW 1029,3 2,0
23.01.2020 22:00:00 -2,7 -3,3 4 2 NW 1029,2 4,0
23.01.2020 21:00:00 -2,1 -2,9 4 2 N 1029,1 4,5
23.01.2020 20:00:00 -0,8 -2,2 5 3 N 1029,3 7
23.01.2020 19:00:00 0,0 -1,8 7 4 E 1029,4 7
23.01.2020 18:00:00 -0,3 -2,0 7 4 NE 1029,6 5
23.01.2020 17:00:00 -0,2 -2,0 7 4 ENE 1029,6 6
23.01.2020 16:00:00 0,1 -2,0 14 8 E 1030,3 7
23.01.2020 15:00:00 0,2 -1,9 11 6 ENE 1031,1 8
23.01.2020 14:00:00 0,0 -1,8 11 6 E 1032,0 8
23.01.2020 13:00:00 -0,2 -2,1 13 7 ENE 1033,1 6
23.01.2020 12:00:00 -1,0 -2,5 14 8 E 1034,1 5
23.01.2020 11:00:00 -1,4 -2,5 14 8 E 1035,0 3,8
23.01.2020 10:00:00 -1,9 -2,8 14 8 E 1035,4 3,8
23.01.2020 09:00:00 -2,3 -2,8 11 6 ENE 1035,8 2,5
23.01.2020 08:00:00 -2,3 -2,7 14 8 E 1035,7 2,0
23.01.2020 07:00:00 -2,4 -2,8 11 6 E 1035,9 1,8
23.01.2020 06:00:00 -2,2 -2,6 11 6 E 1036,1 1,6
23.01.2020 05:00:00 -2,2 -2,5 11 6 E 1036,4 0,4
23.01.2020 04:00:00 -2,4 -2,7 4 2 E 1036,7 0,5
23.01.2020 03:00:00 -2,6 -2,9 0 0 N 1037,4 0,5
23.01.2020 02:00:00 -2,7 -3,1 4 2 S 1037,6 1,5
23.01.2020 01:00:00 -2,5 -3,4 5 3 S 1038,1 2,8
23.01.2020 00:00:00 -2,1 -3,6 4 2 ENE 1038,2 4,0
22.01.2020 23:00:00 -2,2 -3,8 4 2 E 1038,2 4,0
22.01.2020 22:00:00 -2,3 -3,8 7 4 E 1038,0 4,0
22.01.2020 21:00:00 -2,4 -3,7 4 2 N 1037,6 4,0
22.01.2020 20:00:00 -2,4 -3,6 11 6 S 1037,1 4,0
22.01.2020 19:00:00 -2,3 -3,8 7 4 SE 1037,0 4,0
22.01.2020 18:00:00 -2,7 -3,9 4 2 SSE 1036,5 4,0
22.01.2020 17:00:00 -2,9 -4,3 7 4 S 1036,1 4,5
22.01.2020 16:00:00 -1,5 -4,1 4 2 N 1036,0 5
22.01.2020 15:00:00 -1,4 -3,7 7 4 NNE 1036,3 6
22.01.2020 14:00:00 -1,8 -3,8 4 2 N 1036,4 5
22.01.2020 13:00:00 -2,5 -4,2 4 2 N 1037,1 4,5
22.01.2020 12:00:00 -2,7 -4,1 7 4 WSW 1037,4 4,0
22.01.2020 11:00:00 -2,9 -4,3 4 2 N 1038,1 3,8
22.01.2020 10:00:00 -2,8 -4,0 4 2 NNW 1038,0 3,4
22.01.2020 09:00:00 -3,0 -4,3 7 4 ESE 1037,7 3,2
22.01.2020 08:00:00 -2,7 -3,9 7 4 NE 1037,7 3,4
22.01.2020 07:00:00 -3,0 -4,2 4 2 N 1037,5 4,0

tt = temperature
td = dewpoint
ff = wind speed
dd = wind direction
ppp = reduced air pressure
vv = visibility

Next stations